Location: Chino
(34.0122°N, 117.6889°W)
Time: 14:22:12
(UTC+00:00)

Aurora 2 Rocket - Pass Details

Date: 13 February 2026
Orbit: 385 x 1535 km, 25.0° (Epoch: 12 March)

Event Time Altitude Azimuth Distance (km) Brightness Sun altitude
Exits shadow 13:28:26 15° 239° (WSW) 2,008 4.7 -14.8°
Maximum altitude 13:32:29 35° 180° (S) 1,450 4.5 -14.0°
Drops below altitude 10° 13:39:04 10° 118° (ESE) 3,041 7.3 -12.6°
Sets 13:42:34 0° 111° (ESE) 4,198 8.6 -11.9°
